TimeAKDT,TemperatureF,Dew PointF,Humidity,Sea Level PressureIn,VisibilityMPH,Wind Direction,Wind SpeedMPH,Gust SpeedMPH,PrecipitationIn,Events,Conditions,WindDirDegrees,DateUTC
12:53 AM,62.1,48.9,62,29.49,10.0,North,6.9,-,N/A,,Mostly Cloudy,350,2013-08-18 08:53:00
1:53 AM,61.0,48.9,64,29.49,10.0,NNW,11.5,-,N/A,,Mostly Cloudy,340,2013-08-18 09:53:00
2:53 AM,59.0,48.9,69,29.48,10.0,North,9.2,-,N/A,,Mostly Cloudy,360,2013-08-18 10:53:00
3:53 AM,59.0,48.9,69,29.49,10.0,NNW,4.6,-,N/A,,Scattered Clouds,330,2013-08-18 11:53:00
4:53 AM,55.9,51.1,84,29.49,10.0,Calm,Calm,-,N/A,,Scattered Clouds,0,2013-08-18 12:53:00
5:53 AM,54.0,50.0,86,29.49,10.0,Calm,Calm,-,N/A,,Mostly Cloudy,0,2013-08-18 13:53:00
6:53 AM,53.1,48.9,86,29.51,10.0,Calm,Calm,-,N/A,,Mostly Cloudy,0,2013-08-18 14:53:00
7:53 AM,52.0,48.9,89,29.51,10.0,Calm,Calm,-,N/A,,Mostly Cloudy,0,2013-08-18 15:53:00
8:53 AM,57.0,51.1,81,29.52,10.0,Calm,Calm,-,N/A,,Mostly Cloudy,0,2013-08-18 16:53:00
9:53 AM,61.0,51.1,70,29.52,10.0,South,3.5,-,N/A,,Mostly Cloudy,190,2013-08-18 17:53:00
10:53 AM,63.0,51.1,65,29.53,10.0,South,3.5,-,N/A,,Mostly Cloudy,180,2013-08-18 18:53:00
11:53 AM,64.9,51.1,61,29.53,10.0,Calm,Calm,-,N/A,,Mostly Cloudy,0,2013-08-18 19:53:00
12:53 PM,66.9,51.1,57,29.53,10.0,WSW,5.8,-,N/A,,Mostly Cloudy,250,2013-08-18 20:53:00
1:53 PM,68.0,48.9,50,29.53,10.0,Variable,3.5,-,N/A,,Mostly Cloudy,0,2013-08-18 21:53:00
2:53 PM,66.9,50.0,54,29.53,10.0,Calm,Calm,-,0.00,Rain,Light Rain,0,2013-08-18 22:53:00
3:53 PM,64.9,55.0,70,29.52,10.0,East,4.6,-,0.00,Rain,Light Rain,100,2013-08-18 23:53:00
4:53 PM,68.0,55.0,63,29.52,10.0,ESE,4.6,-,0.00,,Mostly Cloudy,120,2013-08-19 00:53:00
5:53 PM,66.9,52.0,59,29.52,10.0,NNE,8.1,-,0.00,Rain,Light Rain,30,2013-08-19 01:53:00
6:53 PM,69.1,50.0,51,29.52,10.0,ENE,4.6,-,0.00,,Mostly Cloudy,60,2013-08-19 02:53:00
7:53 PM,68.0,51.1,55,29.52,10.0,NE,5.8,-,N/A,,Scattered Clouds,50,2013-08-19 03:53:00
8:53 PM,66.9,50.0,54,29.52,10.0,Calm,Calm,-,N/A,,Mostly Cloudy,0,2013-08-19 04:53:00
9:53 PM,63.0,52.0,67,29.53,10.0,Calm,Calm,-,N/A,,Mostly Cloudy,0,2013-08-19 05:53:00
10:53 PM,59.0,54.0,83,29.54,10.0,Calm,Calm,-,N/A,,Mostly Cloudy,0,2013-08-19 06:53:00
11:53 PM,57.0,50.0,77,29.55,10.0,NE,5.8,-,N/A,,Mostly Cloudy,50,2013-08-19 07:53:00